Weather Roundup
Issued by NWS Chicago, IL

Home | Current Version | Previous Version | Graphics & Text | Print | Product List | Glossary On
Versions: 1 2 3 4 5 6 7 8 9 10 11 12 13 14 15 16 17 18 19 20 21 22 23 24 25 26 27 28 29 30 31 32 33 34 35 36 37 38 39 40 41 42 43 44 45 46 47 48 49 50
868
NZUS59 KLOT 231903
HRRLOT

CHICAGO AREA WEATHER ROUNDUP
NATIONAL WEATHER SERVICE CHICAGO/ROMEOVILLE IL
200 PM CDT FRI JUN 23 2017

NOTE: "FAIR" INDICATES FEW OR NO CLOUDS BELOW 12,000 FEET WITH NO
SIGNIFICANT WEATHER AND/OR OBSTRUCTIONS TO VISIBILITY.

* THESE STATIONS ARE NOT UNDER NWS QUALITY CONTROL. THEY ALSO MAY NOT
  REPORT WEATHER SUCH AS PRECIPITATION OR FOG.

ILZ005-006-012>014-019>023-232000-
NORTHEAST ILLINOIS

CITY           SKY/WX    TMP DP  RH WIND       PRES   REMARKS
OHARE          PTSUNNY   81  46  29 NW12      29.71S HX  80
MIDWAY         CLOUDY    82  49  31 N13       29.71S HX  81
AURORA         SUNNY     79  51  37 NW15G21   29.74S
LANSING*       CLOUDY    76  55  47 NE7       29.71F
JOLIET*        SUNNY     81  49  32 N12G21    29.73S HX  80
WAUKEGAN       SUNNY     79  46  31 NW8       29.70S
DUPAGE AIRPORT SUNNY     79  49  34 NW16G25   29.72S
WHEELING       SUNNY     80  47  31 NW14G21   29.72S
MORRIS*        SUNNY     80  52  36 N8        29.73S HX  80
LEWIS AIRPORT* SUNNY     80  47  32 N12G21    29.73S
NORTHERLY ISL    N/A     72  60  66 CALM        N/A
$$

WIZ051-052-058>065-066-070>072-232000-
SOUTHEAST WISCONSIN

CITY           SKY/WX    TMP DP  RH WIND       PRES   REMARKS
MILWAUKEE      MOSUNNY   81  44  27 NW16      29.69R HX  80
KENOSHA*       SUNNY     79  48  33 NW10      29.71R
RACINE*        SUNNY     80  46  30 NW8       29.71S
WAUKESHA       SUNNY     75  45  33 W15G22    29.71S
$$

INZ001>003-010>013-019-020-232000-
NORTHWEST INDIANA

CITY           SKY/WX    TMP DP  RH WIND       PRES   REMARKS
GARY*          PTSUNNY   75  55  50 N6        29.72F
MICHIGAN CITY* NOT AVBL
RENSSELAER*    NOT AVBL
VALPARAISO     CLOUDY    76  57  51 N6        29.73S
$$

LMZ740>746-232000-
SOUTHERN LAKE MICHIGAN

STATION/POSITION TIME  SKY/WX   TEMP WIND        PRES    VSBY
                                AIR  DIR/SP/G
                 (UTC)          (F)  (DEG/KT/KT) (MB)    (MI)
HARRISON CRIB    1840            71   20/  8/  9   N/A
BURNHAM HARBOR   1900            73                N/A
CALUMET HARBOR   1830            70   50/  6/  8 1006.1S
BURNS HARBOR     1840            67  290/  3/  4 1007.1S
MICHIGAN CITY    1840            68  270/  7/  8   N/A
$$

ABBREVIATIONS USED IN REMARKS
   TC - TEMPERATURE IN CELSIUS
  WCI - WIND CHILL INDEX
   HX - HEAT INDEX
  VSB - VISIBILITY
$$




USA.gov is the U.S. government's official web portal to all federal, state and local government web resources and services.